Content
SEND FEEDBACK

Daily
Averages
Monthly
Summary
United States of America

SAND SPRINGS, KANSAS


Home > North America > United States > Kansas
Elevation: 1170 feet     Latitude: 38 54N     Longitude: 097 22W

WEATHER
 
SELECT A DAY
Number of Records: 192,809;   Date Range: 1/1/95 - 10/20/14
 
SHARE

PRINT THIS DATA

[ ← Previous Day ]
WEATHER ALMANAC - JANUARY 23, 2013
[ Next Day → ]
[ °C ]   °F
Weather ElementAverageHighLow
Temperature30.9 °F48 °F (3:53 pm)16 °F (3:53 am)
Dewpoint17.9 °F26.1 °F (10:53 am)10.9 °F (4:53 am)
Humidity60.9 %84 % (3:53 am)37 % (3:53 pm)
Barometer30.28 in30.44 in (10:53 pm)30.19 in (2:53 pm)
Wind Speed7.3 mph16.1 mph (8:53 pm)
Wind Gust24.2 mph (8:53 pm)
Weather ElementAverage
Visibility9.9 mi
Wind DirectionE (87.8 °)

Weather ElementTotal
Precipitation---
Heating Degree Days33 (Base 65)
Averaged from 23 records on January 23, 2013
WEATHER CONDITIONS BREAKOUT
WIND DIRECTION BREAKOUT
WEATHER BY HOUR - JANUARY 23, 2013
[ °C ]   °F
Local TimeTemperatureDewpointHumidityBarometerVisibilityWind DirectionWind SpeedGust SpeedPrecipitationEventsConditions
1:53 AM17.1 °F12.0 °F81 %30.26 in10.0 miSouth (190°)4.6 mphClear
2:53 AM19.9 °F12.0 °F71 %30.25 in10.0 miCalmClear
3:53 AM16.0 °F12.0 °F84 %30.24 in10.0 miSouth (190°)3.5 mphClear
4:53 AM17.1 °F10.9 °F77 %30.23 in10.0 miCalmClear
5:53 AM18.0 °F10.9 °F74 %30.25 in10.0 miCalmClear
6:53 AM17.1 °F10.9 °F77 %30.25 in10.0 miCalmClear
7:53 AM16.0 °F10.9 °F81 %30.24 in9.0 miSouth (190°)5.8 mphClear
8:53 AM23.0 °F16.0 °F74 %30.23 in9.0 miSouth (180°)4.6 mphClear
9:53 AM30.9 °F21.9 °F69 %30.24 in9.0 miCalmClear
10:53 AM39.0 °F26.1 °F60 %30.25 in10.0 miWest (270°)3.5 mphClear
11:53 AM42.1 °F26.1 °F53 %30.24 in10.0 miNNW (330°)5.8 mphClear
12:53 PM43.0 °F24.1 °F47 %30.22 in10.0 miNorth (10°)6.9 mphClear
1:53 PM45.0 °F24.1 °F44 %30.20 in10.0 miNorth (350°)8.1 mphClear
2:53 PM46.9 °F23.0 °F39 %30.19 in10.0 miNNE (20°)3.5 mphClear
3:53 PM48.0 °F23.0 °F37 %30.22 in10.0 miNNE (30°)13.8 mphClear
4:53 PM45.0 °F21.0 °F39 %30.25 in10.0 miNE (40°)11.5 mph0.00 inClear
5:53 PM42.1 °F21.0 °F43 %30.29 in10.0 miNNE (30°)12.7 mphClear
6:53 PM37.0 °F21.0 °F52 %30.33 in10.0 miNNE (30°)12.7 mphClear
7:53 PM34.0 °F19.0 °F54 %30.35 in10.0 miNNE (30°)13.8 mphClear
8:53 PM30.9 °F17.1 °F57 %30.38 in10.0 miNNE (30°)16.1 mph24.2 mphClear
9:53 PM28.9 °F17.1 °F61 %30.40 in10.0 miNNE (30°)16.1 mph0.00 inClear
10:53 PM28.0 °F16.0 °F61 %30.44 in10.0 miNNE (30°)13.8 mphClear
11:53 PM26.1 °F16.0 °F66 %30.43 in10.0 miNE (40°)10.4 mphClear
Hourly data recorded from KSLN, located miles away from Sand Springs, Kansas







STORIES FROM OUR PARTNERS